HAIYANG-2D (48621 NORAD) Tracking and Keplerian Element Data

This shows tracking and keplerian element data for the satellite.

Feedback or suggestion? Click here.




ElementValue
Catalog48621
NameHAIYANG-2D
Epoch Orbit2060
Epoch Day288.13534919
Epoch Year2021
RAAN232.1795
Inclination65.9966
Eccentricity0.0007189
Argument of Perigee258.8202
Mean Anonmoly101.2059
Mean Motion13.83375786
Decay Rate-5.7E-07
L11 48621U 21043A 21288.13534919 -.00000057 00000-0 22271-4 0 9998
L22 48621 65.9966 232.1795 0007189 258.8202 101.2059 13.83375786 20602

Live tracking and technical data element details for HAIYANG-2D (NORAD 48621). HAIYANG-2D can be tracked NOW for your location showing map with azimuth and elevation plus other details from your city location.

Track the satellite on the map from your city or location and see movement details for azimuth, elevation, latitude, longitude, range, height, and movement on the map or in text.







IsCatalogInMostPopularTable: catalog: 48621, numindb: 38
Update: records affected: 1



GetName: 48621 HAIYANG-2D

Hit Count: updated at: Tue, 19 Oct 2021 08:16:05 GMT